Location: Lincoln
(40.8000°N, 96.6670°W)
Time: 18:03:15
(UTC-05:00)

BlueWalker 3 - Pass Details

Date: 05 February 2023
Orbit: 497 x 514 km, 53.2° (Epoch: 28 March)

Event Time Altitude Azimuth Distance (km) Brightness Sun altitude
Rises 19:49:46 0° 313° (NW) 2,608 6.2 -23.2°
Reaches altitude 10° 19:52:20 10° 330° (NNW) 1,726 5.0 -23.7°
Enters shadow 19:53:57 18° 351° (N) 1,314 4.1 -24.0°
